CAPE
476 595 750 1231 1407 1251 1820 2452 2256 2918 3105 3157 3199 3380 3628 3542 3552 3694 3813 3820 3729 3880 3851 3814 3770 3701 3688 3724 3811 3692 3605 3611 3580 3391 3362 3358 3274 3262 3207 3065 2992 2996 3001 2929 2960 2890 2852 2431 2805 2728 2551 2359 2304 2368 2347 2365 2516 2453 2427 2334 2258 2243 2184 1966 1934 1855 1924 1897 1753 1717 1580 1931 2427 2022 1998 1566 2039 2023 2027 2180 2251 2033 2027 1926 2026
530 515 770 1124 1524 1389 1554 2092 2804 3028 3124 3097 3078 3182 3398 3422 3588 3604 3786 3757 3893 3914 3867 3831 3683 3679 3798 3693 3755 3572 3629 3557 3376 3374 3307 3152 3114 3104 3049 2988 2942 2878 2854 2839 2816 2714 2506 2390 2057 2104 2078 2155 2440 2400 2351 2318 2254 2372 2367 2254 2204 2164 2035 1816 1796 1754 1733 1803 1817 1825 1626 1950 2230 1804 2000 1838 2135 2080 2232 2221 2114 2052 1956 1825 1853
437 448 666 933 1386 2198 2378 2654 2812 2993 3006 2997 3125 3148 3044 3428 3719 3811 3804 3825 3806 3805 3809 3702 3799 3740 3692 3670 3674 3639 3493 3366 3316 3172 3051 3023 2967 2956 2942 2869 2890 2803 2686 2640 2714 2426 1869 2057 1914 1851 1834 2074 2117 2284 2498 2486 2450 2366 2425 2359 2285 2154 2079 1858 1923 1901 1876 1711 1730 1713 1584 1804 1800 1780 2128 2047 1996 2042 2272 2272 2074 1918 1717 1848 2017
535 624 810 1360 1559 2237 2162 2272 2663 2914 2901 2901 2922 3166 3332 3340 3707 3748 3791 3763 3803 3784 3704 3678 3632 3690 3760 3624 3674 3590 3511 3398 3238 3130 2944 2809 2804 2776 2752 2766 2769 2759 2713 2629 2448 2445 1980 1997 1876 1859 2040 2218 2329 2461 2165 2597 2468 2440 2337 2391 2222 2222 2193 2058 1914 1938 1911 2066 2058 2208 2412 2044 1776 1599 1966 2081 1946 1967 2311 2218 2130 1939 1889 1928 1921
679 751 881 1051 1358 2102 1942 1774 2112 2616 2620 2656 2876 2840 3062 3158 3530 3687 3849 3814 3747 3736 3712 3804 3724 3742 3688 3580 3412 3476 3528 3368 3095 3026 2968 2795 2787 2878 2917 2968 2906 2758 2864 2786 2618 2002 2017 1970 1930 2168 2185 2249 2168 2248 2252 2472 2319 2364 2100 2007 1892 2117 2096 2138 2064 2002 1936 2000 2054 1857 1486 1964 2104 2033 1925 2086 2189 2424 2255 2008 2092 2052 2134 2090 2104
794 870 878 1104 1714 2052 1928 1744 1921 2133 2477 2570 2716 2898 3174 3489 3647 3776 3738 3662 3759 3774 3768 3617 3664 3629 3615 3554 3518 3362 3233 3162 3032 2994 2900 2872 2883 2891 3010 2944 2919 2900 2935 2435 2201 2144 2010 1989 1943 2215 2547 2498 2544 2225 2364 2558 2543 2280 2117 2215 2180 1996 1743 2077 2064 1972 1942 2062 1940 1344 1554 1918 2029 1783 2257 2356 2115 2111 2049 2120 2157 2024 1917 2293 2015
990 1096 989 1474 1787 2166 2396 2352 2289 2401 2461 2651 2844 2955 3110 3420 3660 3583 3550 3523 3659 3746 3676 3633 3650 3596 3526 3507 3444 3296 3133 3042 2970 2938 2936 2849 2857 2862 2929 2866 3053 3060 2883 2793 1904 2273 2194 2002 2228 2306 2342 2366 2535 2728 2667 2626 2592 2484 2197 2141 2224 1862 1792 1823 1832 2252 1945 1337 1089 1329 1566 1916 2162 1809 2092 2198 1960 2090 2261 2188 2150 2227 2253 2131 2078
1054 1168 1353 1644 1872 2442 2866 2685 2410 2493 2650 2789 2881 2908 3064 3239 3502 3582 3558 3562 3591 3604 3671 3580 3686 3460 3360 3395 3332 3197 3053 3034 3091 2945 2923 2931 2923 2935 2939 3154 3144 2881 2807 2416 2364 2634 2486 2404 2510 2432 2260 2389 2482 2509 2596 2508 2439 2514 2330 2363 2320 2216 2220 2156 2579 2193 1777 1090 1209 1330 1575 1874 2162 2120 1712 2246 2128 2151 2258 2126 2060 2056 2303 2208 2298
1032 1241 1448 1690 1860 2442 2894 2836 2277 2415 2552 2662 2844 2877 3070 3311 3498 3619 3604 3552 3469 3572 3642 3648 3691 3518 3406 3386 3394 3248 3299 3295 3293 3093 3069 3020 2980 3037 3008 2823 2824 2880 2814 2766 2592 2431 2560 2537 2644 2506 2552 2558 2600 2542 2596 2552 2464 2308 2356 2222 2284 2398 2265 2274 2097 2289 1585 1459 1298 1240 1452 1631 1834 2036 1952 2173 2288 2334 2171 1908 1936 1996 2074 2219 2197
1133 1255 1502 1636 1819 2506 2671 2857 2487 2319 2503 2684 2862 2930 3204 3358 3483 3591 3433 3420 3339 3573 3730 3668 3508 3430 3313 3294 3330 3198 3444 3355 3304 3247 3201 3054 2988 2743 2755 2684 2560 2740 2808 2688 2735 2639 2642 2658 2527 2412 2591 2473 2572 2475 2418 2645 2658 2528 2390 2425 2536 2593 2403 1938 2361 1964 1256 1426 1316 1226 2043 1970 1724 1678 1962 2389 2326 2293 2246 1964 1938 2080 2050 2223 2118
1199 1329 1479 1576 1842 2640 2845 2736 2449 2309 2456 2795 3020 3086 3178 3370 3546 3458 3277 3413 3358 3562 3607 3522 3446 3415 3274 3215 3271 3286 3315 3247 3125 3129 3026 2702 2787 2708 2648 2622 2658 2773 2426 2482 2538 2423 2568 2585 2512 2506 2406 2362 2426 2583 2534 2528 2538 2572 2509 2564 2608 2648 2538 2448 1697 1103 1218 1222 1266 1667 2234 1978 1647 1636 1767 2090 2184 2190 1728 1826 2058 2251 2107 2020 2030
1129 1323 1450 1550 1950 2269 2682 2679 2170 2233 2369 2597 2803 2981 3129 3298 3369 3343 3364 3362 3328 3505 3444 3398 3341 3222 3147 3222 3350 3009 2884 2817 2696 2686 2638 2567 2698 2824 2793 2930 2954 2904 2508 2406 2473 2494 2713 2394 2281 2498 2322 2441 2416 2498 2646 2550 2677 2699 2640 2663 2505 2339 2378 2028 1182 1254 1253 1258 1570 1974 2080 1635 1901 1443 1533 1520 1564 1661 1596 1843 1910 1932 1844 1898 1850
976 1250 1461 1604 1855 1982 2352 2492 2152 2198 2353 2454 2710 2926 3078 3293 3348 3384 3416 3382 3423 3449 3334 3277 3237 3218 3194 3211 3143 2978 2782 2676 2596 2544 2712 2768 2854 2864 2906 2794 2777 2740 2764 2859 2476 2379 2342 2388 2297 2474 2502 2306 2450 2652 2650 2572 2652 2739 2772 2700 2536 2376 2573 1978 1427 1667 1877 1939 2423 2061 1571 1778 2171 2067 1897 1490 1751 1716 1449 1729 1848 1974 1936 1828 1827
1012 1228 1401 1563 1713 1970 2222 2399 2206 2322 2360 2520 2682 2937 3146 3329 3412 3464 3397 3322 3337 3420 3356 3348 3143 3192 3170 3169 3120 3045 2850 2631 2482 2514 2513 2746 2871 2898 2766 2698 2678 2698 2715 2763 2770 2549 2454 2474 2499 2565 2572 2508 2429 2455 2689 2603 2520 2770 2776 2852 2570 2388 2526 2333 2462 2238 2413 2294 2113 1877 1512 2354 2248 2038 1824 1745 1972 1778 1852 1598 2017 1719 1763 1938 1680
1076 1212 1438 1583 1697 1835 1879 2302 2342 2371 2485 2579 2603 2805 3121 3296 3362 3379 3334 3340 3305 3276 3308 3254 3149 3007 3187 3055 2982 2855 2901 2747 2533 2512 2696 2585 2748 2699 2634 2632 2649 2694 2706 2894 2710 2524 2501 2523 2574 2702 2678 2651 2708 2720 2901 2645 2629 2852 2630 2523 2674 2610 2702 1985 1988 2022 2595 2524 2299 2261 1662 1833 2442 2131 1548 2028 2089 1887 1632 1944 1952 1631 1678 1820 1702
1069 1237 1566 1609 1524 1587 2180 2012 2016 2466 2460 2572 2614 2729 2932 3212 3351 3350 3250 3299 3325 3282 3273 3220 3137 2916 2950 3036 3022 2979 2846 2754 2540 2660 2731 2721 2718 2663 2498 2712 2808 2940 2542 2856 2741 2776 2618 2526 2732 2707 2435 2635 2552 2610 2678 2772 2873 2801 2755 2643 2652 2755 2535 2349 1706 1870 1983 2108 2409 2044 1668 2006 2341 2386 1639 1865 2148 1978 2162 2078 1907 1568 1306 1564 1770
1070 1371 1618 1712 1530 1680 1734 1950 2423 2533 2450 2494 2605 2740 2932 3186 3310 3259 3199 3208 3284 3278 3223 3129 3131 3080 3070 2998 2998 2897 2885 2798 2582 2574 2652 2583 2536 2491 2621 2836 2914 3002 3096 2780 2955 2886 2826 2637 2772 2847 2796 2740 2861 2718 2597 2591 2966 2939 2805 2884 2968 2744 2717 2391 1576 1808 1888 2751 2333 2008 1670 1954 2612 2080 1627 1768 1668 1495 2192 1838 2001 1653 1257 1424 1774
1162 1395 1625 1707 1642 1633 1860 2040 2386 2493 2432 2427 2476 2618 2871 3051 3125 3163 3131 3074 3178 3114 3124 3078 3045 3046 3072 3022 3018 2942 2834 2860 2756 2660 2664 2478 2464 2371 2637 2615 3022 3164 3151 2937 3107 2836 2842 2715 2792 2874 2978 2972 2795 2711 2530 2786 2934 2990 3106 3022 2534 2738 2729 2263 1407 1666 1893 2798 2280 2192 2055 2386 2909 2212 2016 1606 1545 1812 1940 2169 1857 1674 1420 1123 1815
1254 1458 1603 1730 1689 1724 1850 1938 2001 2327 2285 2324 2280 2452 2702 2870 2956 2968 2956 3046 3052 3058 3084 3064 2979 2841 2878 3000 2940 2759 2728 2752 2826 2720 2686 2680 2617 2669 2918 2720 2852 2959 2968 3183 2847 2659 2768 2943 2471 2684 2803 2729 2853 2687 2762 2744 2811 2594 2438 2498 2738 2512 2796 2243 1571 1620 2134 2670 2307 2422 2149 2504 3040 2044 1790 1649 1716 1954 1932 2096 1796 1659 1521 978 1626
1282 1410 1553 1757 1702 1684 1784 1924 1956 2232 2191 2308 2373 2289 2443 2685 2756 2833 2739 2748 2890 2997 3041 3024 2819 2746 2750 2998 2957 3156 2891 3006 2812 2935 2895 3056 2846 2728 2968 2994 2792 2834 2732 2838 2861 2636 2758 2921 2489 2509 2501 2788 2936 2984 2694 2773 2908 2942 2714 2794 2556 2648 2626 1605 1797 1737 1912 2510 2554 2407 2023 2582 2986 2166 2130 1745 1718 1788 1575 1682 1676 1598 1529 1256 1637
1244 1343 1504 1679 1690 1649 1711 1882 1918 2130 2150 2241 2336 2217 2477 2533 2522 2638 2767 2810 2741 2898 2921 2725 2689 2617 2579 2745 2989 3284 2965 3109 3068 3108 3205 3426 2973 2872 2692 2938 2736 2726 2696 2845 2996 2667 1964 2576 2340 2466 2338 2727 2571 2768 3001 2900 2798 2906 2870 2636 2643 2454 2541 2146 1394 1914 1885 2486 2899 2210 2158 2508 3002 2194 1590 1699 1530 1760 1796 1767 1406 1401 1342 1709 1669
1176 1297 1451 1640 1690 1724 1652 1807 1890 2062 2099 2161 2212 2090 2361 2517 2272 2518 2654 2746 2708 2773 2722 2506 2625 2394 2472 2677 2539 3286 2604 2699 2658 3259 3189 3324 3080 2690 2712 2825 2887 2660 2790 2898 2933 2871 2689 2615 2870 2537 2438 2628 3018 3626 3396 3241 2987 2816 2985 2978 3124 2818 2538 2052 1808 1546 2181 1951 2891 2397 2523 2561 2733 2292 2031 1923 1616 1639 1880 1736 1380 1506 1591 1848 1453
1126 1309 1441 1597 1678 1732 1750 1782 1822 2003 2047 2086 2136 2074 2161 2250 2257 2426 2629 2728 2774 3051 2533 3039 2514 2154 2266 2211 2708 2649 2571 2448 2678 2861 3349 3042 3474 2704 2687 2924 2832 2806 2845 2965 2756 2918 2900 2656 2692 2840 2802 3065 2945 2543 2304 2321 2301 3398 3572 3370 2964 2770 2256 1643 1547 1448 1759 1835 2511 2638 2832 2690 2710 2058 1859 1730 1670 1482 1562 1574 1854 1406 1414 1635 1427
1037 1223 1394 1592 1655 1682 1757 1816 1814 1976 2010 2022 2060 2065 2098 2193 2234 2261 2446 2532 2588 2834 2531 2574 2430 2235 2099 2177 2316 2419 2582 2405 3275 3052 2919 3220 2911 3545 3346 3136 3067 3288 3025 3774 3714 3470 3532 3803 3610 3800 3256 2687 2131 1906 1982 2062 2121 2355 2182 3162 3067 2862 2388 1504 1274 1306 1154 1708 2379 2271 2821 2792 2770 2488 2006 1688 1769 1752 1599 1810 1834 1504 1593 1368 1285
1006 1186 1417 1624 1658 1662 1717 1828 1854 1956 1970 1956 1978 2029 2027 2120 2175 2224 2400 2426 2525 2622 2549 2434 2396 2346 2092 2154 2298 2415 2473 2352 2310 2426 2799 2806 2650 2626 2554 2536 2735 2747 3795 3282 3124 2618 2698 2614 2492 2550 2294 2299 2373 2194 1865 1825 1848 1547 1716 2316 2823 2668 2174 1519 1117 1057 928 1102 1732 2251 2730 2764 2480 2594 2318 2021 1630 1894 2064 1733 1939 1785 1595 1726 1470
995 1147 1350 1568 1702 1724 1753 1834 1841 1911 1922 1924 1950 2038 1966 2065 2103 2178 2289 2365 2452 2460 2526 2438 2394 2349 2242 2187 2550 2300 2424 2329 2315 2286 2426 2580 2774 2770 2650 2475 2605 2874 3137 2988 3050 3103 2619 2264 1987 2048 1983 2061 2096 1879 1760 2214 1283 1090 1290 1746 2005 2040 1701 1201 1057 1012 758 835 1105 1744 2414 2542 1960 1840 1900 2012 1750 1882 2078 2044 1998 2046 2168 1524 1630
1042 1109 1272 1451 1630 1770 1803 1872 1853 1838 1860 1900 1943 2032 2018 2046 2086 2110 2175 2267 2320 2365 2450 2425 2357 2318 2256 2182 2327 2306 2325 2379 2348 2251 2221 2400 2636 2768 2733 2635 2548 2639 2786 2792 2742 2850 2633 2067 1769 1906 1934 1987 1922 1700 1540 1375 1332 1301 1249 1247 1310 1385 1294 1184 1067 1032 1001 785 1099 1628 2059 2790 1983 1813 2116 2038 1856 1680 1892 2012 2033 2118 2124 1701 1489
989 1058 1178 1358 1640 1682 1821 1866 1870 1799 1817 1863 1927 1943 2062 2035 2075 2207 2296 2202 2243 2302 2376 2404 2347 2317 2266 2167 2551 2312 2324 2323 2324 2252 2218 2281 2359 2473 2657 2750 2643 2433 2484 2542 2510 2433 2228 1892 1638 1347 1634 1752 1666 1651 1453 1229 1268 1223 1265 1222 996 1006 1012 990 1014 970 1033 906 966 1737 2116 2560 1904 1804 1933 2036 1988 1896 1726 2041 2210 1839 2240 2062 1900
911 997 1084 1255 1428 1589 1784 1810 1852 1814 1792 1828 1912 1928 2068 2055 2106 2119 2174 2379 2242 2239 2306 2363 2361 2312 2327 2252 2626 2323 2312 2276 2214 2108 2110 2164 2185 2174 2352 2568 2467 2252 2266 2408 2394 2118 1638 1323 1244 1341 1389 1611 1669 1595 1808 1696 1357 1118 834 592 386 413 492 734 732 798 890 867 908 1431 2170 2882 2444 1824 2099 2263 2145 2031 1798 1666 1847 1617 1777 2024 1915
797 908 982 1111 1268 1483 1668 1727 1771 1718 1762 1821 1854 1865 2005 2018 2040 2086 2127 2424 2233 2201 2203 2282 2338 2326 2315 2322 2288 2294 2282 2209 2132 2011 1994 2094 2149 2082 2125 2268 2246 2260 2305 2418 2411 2052 1310 944 1168 1499 1425 1247 1379 1330 1889 1482 1017 740 392 354 203 90 85 220 423 563 695 862 1082 1636 2315 3121 2782 2337 2133 2031 1936 1782 1917 1688 1668 1521 1492 1757 1888
688 824 864 966 1175 1369 1498 1614 1651 1706 1660 1744 1770 1797 1898 2065 2038 2021 2083 2139 2179 2130 2133 2177 2261 2308 2290 2277 2274 2287 2239 2206 2098 1926 1885 2000 2114 2050 1914 2002 2104 2225 2347 2416 2126 1604 1004 1064 1306 1514 1709 1228 1069 1330 1321 1111 1070 788 504 37 34 6 5 24 278 411 670 1010 1299 1674 2105 3139 3353 2358 2229 2033 2028 2172 1954 1878 1646 1612 1405 1442 1747
587 713 761 845 986 1261 1348 1469 1544 1592 1561 1578 1703 1686 1751 1864 1903 1852 1952 2041 2081 2122 2092 2088 2160 2233 2262 2207 2164 2158 2489 2151 2094 1971 1878 1939 2048 1993 1775 1848 1942 2044 2132 1998 1386 1367 1778 1590 1708 1532 1334 1243 1214 1241 1260 1328 1027 580 304 77 58 31 6 0 166 504 902 1239 1433 1550 1702 2538 3167 2809 2252 2456 1887 2230 1789 1637 1607 1626 1538 1651 1491
454 576 630 699 846 1134 1211 1275 1371 1442 1438 1429 1477 1551 1598 1684 1742 1760 1821 1908 1962 2040 2048 2031 2069 2140 2162 2135 1990 2028 2223 2172 2036 1981 2138 2008 2042 1952 1664 1782 1821 1898 1949 1630 1350 1678 2326 2287 1872 2034 1710 1525 1405 1370 1392 951 558 318 222 163 140 54 11 2 24 515 1140 1418 1431 1420 1582 2406 3542 3332 2401 2169 1955 1129 1850 1714 1934 1878 1890 1687 1858
396 435 490 540 706 995 1114 1110 1206 1257 1335 1278 1281 1373 1425 1522 1642 1655 1638 1683 1772 1889 1938 1936 1926 1962 2006 1960 1819 1886 2168 2054 2042 1982 1938 1970 1990 1950 1717 1621 1715 1778 1691 1673 1621 1940 2214 2255 1900 1696 1990 1933 1389 1188 1063 650 388 229 204 231 84 230 12 0 9 404 1064 1408 1410 1444 1801 2501 3164 3320 3486 2760 2123 1522 1852 2082 1992 1916 1936 2162 2055
408 263 284 375 712 840 1017 1001 1266 1146 1422 1194 1293 1207 1275 1315 1446 1500 1498 1479 1534 1649 1762 1774 1750 1735 1760 1779 1739 1895 2181 2062 2078 2008 1940 1884 1882 1886 1742 1570 1658 1694 1644 1680 1702 1844 2066 2230 2013 1683 1360 1116 1087 1089 796 562 364 204 121 412 205 1002 10 16 460 1194 1376 1433 1456 1586 1992 2481 2628 2938 3119 2704 2205 1380 1672 1866 1906 1838 1998 2246 2315
492 266 236 351 574 734 1028 892 1104 1063 1170 1231 1163 1146 1249 1199 1236 1486 1338 1372 1470 1468 1564 1628 1608 1577 1573 1578 1655 1918 2159 2062 2065 2019 1934 1841 1827 1872 1792 1526 1610 1624 1670 1671 1894 1926 1829 2012 2018 1763 1206 937 1232 961 826 624 370 242 121 66 99 955 5 14 286 953 1304 1434 1651 1707 1952 2280 2443 2657 3110 2804 2533 2110 1978 2266 2180 2188 2286 2007 1932
551 329 270 381 542 710 1166 839 934 1002 1028 1217 1185 1143 1188 1172 1122 1240 1284 1349 1382 1428 1481 1512 1544 1513 1500 1493 1554 1845 2205 2065 2045 2010 1920 1856 1845 1875 1832 1513 1606 1657 1666 1756 1909 1916 1784 1890 2113 1686 1016 760 737 778 745 640 358 136 77 18 75 352 17 32 39 350 920 1400 1561 1653 1715 1839 2292 3049 3209 2727 2772 2807 2502 2415 2380 2358 2024 1799 1872
852 602 373 436 552 740 945 858 848 955 960 1123 1220 1190 1239 1243 1147 1061 1496 1321 1378 1395 1460 1480 1514 1516 1512 1504 1502 1761 2211 2088 2046 2025 1971 1915 1880 1879 1826 1560 1522 1596 1728 1857 1909 1915 1927 2042 2256 1616 1089 908 742 591 639 621 550 227 56 12 26 20 30 536 1695 1810 517 902 1248 1577 1620 1520 2016 2412 2743 2686 2676 2513 2676 2600 2466 2390 2347 2047 1868
894 862 727 545 612 768 982 1068 975 925 943 1064 1262 1228 1280 1321 1257 1137 1099 1313 1308 1398 1447 1485 1519 1543 1552 1582 1596 1628 2144 2097 2052 2032 2017 1973 1937 1910 1838 1392 1458 1459 1688 1880 1942 2016 2151 2246 2081 1309 1152 1070 873 614 476 391 352 332 357 132 25 25 141 1097 206 82 313 575 952 1567 1216 1373 1551 1940 2101 2327 2478 2487 2533 2533 2664 2574 2726 2167 2099
885 845 644 648 701 822 1004 1095 1080 933 952 1047 1218 1284 1296 1400 1407 1341 1194 1270 1340 1452 1466 1500 1531 1552 1602 1641 1693 1702 1748 2214 2044 2023 2024 1996 1970 1907 1804 1537 1545 1657 1725 1750 1766 1950 2126 2080 1941 1588 942 702 789 547 425 297 110 0 429 34 21 225 451 186 50 109 466 485 1210 1318 1172 1282 1581 1709 1763 1993 2086 2320 2399 2318 2508 2454 2515 2492 2357
866 795 685 722 776 872 1096 1165 1188 1038 1056 1090 1183 1256 1277 1344 1412 1432 1389 1313 1346 1382 1537 1499 1541 1579 1616 1658 1697 1679 1666 2085 2273 2056 2037 2095 1981 1908 1697 1679 1690 1838 1905 1856 1553 1749 2021 2040 1910 1682 842 731 580 39 0 0 0 0 0 0 1 578 2110 264 94 28 209 342 1124 1105 1466 1486 1487 1697 1658 1728 1935 2002 2080 2160 2241 2210 2303 2304 2614
882 839 874 828 838 890 1052 1166 1286 1204 1143 1129 1209 1280 1224 1263 1342 1409 1454 1464 1478 1489 1458 1496 1545 1595 1601 1625 1634 1619 1634 1906 2425 2119 2040 1974 1910 1686 1764 1776 1818 2005 2027 1961 1467 1624 1775 1843 1771 1374 850 662 475 29 27 0 0 0 0 0 2 21 635 28 58 72 49 377 612 924 1213 1361 1404 1515 1607 1668 1756 1895 2008 1916 1990 2126 2061 2073 2368
958 950 981 946 917 936 1024 1181 1302 1341 1272 1243 1228 1252 1198 1240 1246 1341 1436 1500 1516 1514 1439 1471 1492 1528 1553 1591 1661 1622 1712 1903 2219 2475 2235 1982 1930 1736 1811 1880 1939 2155 2149 2043 1579 1458 1574 1679 1648 1360 901 670 428 358 154 0 0 0 0 0 0 0 92 0 0 0 3 292 558 696 904 1158 1195 1377 1399 1411 1409 1453 1468 1579 1702 1801 1942 1971 1970
955 960 988 1014 1015 1086 1049 1166 1286 1376 1367 1334 1470 1215 1218 1187 1238 1320 1416 1444 1468 1549 1446 1434 1468 1480 1480 1591 1778 1786 1813 1973 2154 2460 2480 2229 2096 1830 1854 1926 2159 2239 2245 2122 1784 1455 1462 1548 1512 1333 984 694 1 43 808 0 0 0 0 0 0 0 0 0 0 0 57 371 599 566 610 750 1001 1220 1255 1241 1112 1154 1284 1291 1411 1455 1626 1644 1576
946 944 986 1034 1062 1076 1091 1152 1245 1352 1404 1494 1519 1328 1337 1234 1220 1316 1378 1432 1384 1367 1368 1399 1459 1550 1556 1473 1803 1938 1960 2058 2188 2376 2620 2412 2260 2118 2096 2174 2272 2321 2296 2160 1974 1679 1583 1473 1419 1316 987 625 0 0 218 0 0 4 0 0 0 0 0 0 0 0 28 288 444 396 637 546 759 1181 1166 817 834 1114 1074 1073 1068 1040 1161 1319 1378
978 971 979 1042 1077 1096 1110 1128 1198 1287 1374 1418 1446 1389 1278 1236 1188 1240 1312 1332 1328 1304 1328 1378 1442 1504 1609 1511 1602 2029 2101 2129 2170 2290 2506 2524 2409 2379 2355 2340 2379 2385 2322 2176 2068 1865 1798 1708 1578 1361 922 540 0 0 28 1236 122 350 2 0 0 0 1 0 0 0 0 94 256 254 192 286 501 735 631 562 497 651 815 917 947 1036 1090 1179 1275
949 984 984 1019 1067 1098 1094 1117 1162 1242 1331 1397 1440 1533 1298 1213 1174 1166 1192 1200 1179 1236 1312 1364 1405 1486 1550 1631 1699 1964 2138 2199 2233 2252 2359 2533 2456 2458 2446 2427 2432 2397 2282 2145 2073 1965 1913 1884 1774 1389 840 229 0 30 43 69 0 26 6 10 297 234 1 6 0 0 0 0 116 192 146 138 262 391 450 402 380 356 438 562 666 763 974 1127 1176
846 913 958 983 1050 1107 1105 1102 1128 1227 1262 1344 1397 1431 1343 1234 1190 1157 1148 1123 1079 1122 1236 1353 1352 1524 1555 1633 1710 1907 2111 2154 2254 2224 2260 2380 2445 2474 2480 2464 2456 2407 2251 2081 1995 1976 1956 1975 1852 1308 721 103 7 42 38 5 62 8 852 106 397 83 0 0 0 0 0 0 0 0 63 129 193 234 284 314 270 211 156 150 237 266 398 968 1262
762 834 907 956 1004 1079 1111 1114 1115 1146 1193 1279 1336 1393 1368 1272 1194 1154 1115 1081 1041 1065 1141 1227 1298 1719 1658 1697 1791 1915 2090 2160 2195 2226 2268 2309 2523 2438 2462 2461 2422 2377 2218 2059 2020 2011 2009 2035 1847 1174 505 102 12 18 32 41 0 6 21 8 0 0 0 4 0 0 0 0 0 0 0 0 0 109 244 251 220 112 47 37 61 424 216 427 954
678 740 822 891 942 1001 1056 1070 1095 1100 1138 1192 1322 1332 1362 1334 1185 1111 1046 1025 1067 1052 1098 1171 1269 1488 1688 1793 1920 1993 2161 2176 2190 2221 2243 2280 2341 2360 2383 2392 2348 2269 2153 2057 2046 2084 2068 2054 1946 1290 268 72 28 110 27 19 4 1 12 20 13 4 1 0 0 0 0 0 0 0 0 0 0 0 72 246 238 115 2 7 18 30 68 138 489
370 577 711 780 836 898 966 1000 1021 1044 1074 1116 1199 1254 1292 1271 1172 1064 993 950 964 1005 1068 1113 1228 1362 1568 1720 1927 2077 2197 2256 2233 2216 2217 2229 2240 2278 2266 2271 2244 2190 2135 2096 2066 2024 1999 2050 2002 1132 114 72 31 36 253 100 10 7 3 11 10 16 22 14 0 0 0 0 0 0 0 0 0 0 0 28 200 81 0 0 2 6 20 25 59
Wind_Speed
15 15 16 11 11 7 7 6 7 6 6 5 5 5 6 6 7 8 7 8 8 8 8 9 10 10 10 11 11 11 10 9 7 6 6 6 6 6 5 5 5 5 7 8 9 10 10 10 9 8 6 4 4 3 3 3 3 3 3 4 5 5 4 4 4 3 4 3 2 2 5 6 2 5 5 3 6 7 7 8 6 5 8 10 11
12 14 15 12 11 8 7 5 4 5 5 5 5 6 8 8 8 8 8 8 8 9 9 10 10 10 10 10 10 11 9 8 7 5 5 5 5 5 5 4 4 4 6 7 8 9 9 11 10 7 4 3 3 2 2 3 3 3 3 4 5 5 5 4 4 3 3 3 2 0 1 2 4 3 4 3 4 5 6 6 6 5 8 9 11
9 11 13 13 12 6 5 4 4 5 5 5 6 7 8 8 8 8 8 8 8 9 10 10 10 10 10 10 10 9 8 8 7 5 5 4 4 4 4 4 3 4 5 6 7 7 11 11 7 1 2 1 1 3 3 3 3 3 3 4 4 5 5 4 4 4 4 2 1 1 2 5 3 5 5 3 3 4 5 6 5 4 6 8 11
6 11 11 11 12 7 7 6 6 7 7 7 7 8 8 8 8 8 9 9 9 10 11 11 10 10 10 9 8 8 8 7 7 6 5 5 4 4 3 3 3 3 5 6 6 7 9 8 1 2 2 2 1 1 2 3 3 2 2 3 3 3 3 3 3 3 3 1 1 6 9 9 4 6 5 3 1 2 3 4 4 3 5 8 10
5 8 10 12 10 7 8 9 9 9 9 9 9 9 9 9 9 9 9 10 9 10 11 11 11 10 10 9 8 8 7 7 7 6 6 5 4 3 3 2 2 3 4 5 5 9 5 3 3 4 4 3 3 1 2 3 2 1 2 2 2 2 1 1 2 3 2 2 4 6 9 7 7 5 5 3 2 1 2 3 3 3 4 7 9
4 6 9 10 7 6 8 9 11 11 11 10 10 10 9 9 9 10 10 9 9 10 10 11 11 11 10 9 9 9 8 8 7 7 6 5 4 3 2 2 2 3 4 3 6 5 3 2 4 3 4 5 5 2 1 1 1 1 1 1 2 1 1 3 2 3 3 4 6 7 7 7 8 6 5 5 4 1 1 2 2 3 5 6 7
3 4 4 7 4 5 9 11 12 12 11 11 10 10 10 10 9 9 9 9 10 10 11 11 11 10 10 10 11 10 10 10 9 8 6 5 4 3 3 2 2 2 3 3 6 3 2 1 3 2 2 2 3 2 2 2 2 2 2 1 1 4 3 1 0 2 5 1 4 5 6 7 8 6 4 5 4 3 0 1 2 3 4 5 7
3 2 3 4 3 7 10 11 12 12 11 11 10 10 10 10 9 9 10 10 10 11 11 12 10 11 12 12 12 12 12 11 10 8 6 4 3 2 2 2 1 1 2 3 5 1 3 3 4 2 0 2 3 3 3 3 1 2 2 1 2 2 2 1 2 2 3 1 3 4 4 6 7 5 5 4 3 2 2 0 2 2 2 4 5
5 3 3 3 4 10 8 10 13 13 12 11 11 11 10 10 9 9 10 10 11 11 12 12 12 13 13 13 13 13 13 11 9 7 6 5 4 3 2 1 0 1 1 1 2 1 3 5 1 1 1 2 3 2 2 1 1 2 1 1 3 5 3 0 2 3 1 3 2 3 3 5 7 6 4 4 3 3 2 2 1 2 3 4 4
5 3 3 3 3 8 10 12 13 14 13 11 11 11 10 9 9 10 11 11 11 11 12 13 14 14 14 13 13 12 11 9 8 7 6 5 4 2 1 1 1 1 1 2 2 1 2 3 3 2 1 2 3 1 1 1 1 1 1 1 3 6 6 5 5 2 2 3 3 3 5 2 5 7 3 3 3 3 3 2 3 2 2 4 4
4 3 2 3 5 10 12 14 15 14 13 12 11 10 10 10 10 10 11 12 12 11 12 14 14 14 13 13 12 11 9 8 8 7 6 5 3 1 1 2 2 1 1 1 2 2 2 3 3 3 2 2 1 1 1 1 2 1 1 2 2 4 5 7 7 4 4 3 5 5 5 1 4 3 6 3 3 4 3 1 1 1 2 3 4
3 2 2 3 10 12 13 14 15 15 14 12 12 11 10 11 11 12 12 12 12 12 13 14 14 13 12 12 11 10 8 7 6 7 7 5 4 2 1 2 3 2 1 1 2 3 5 4 4 4 3 2 2 2 2 2 2 2 1 1 2 2 5 6 5 4 3 4 5 6 8 5 5 1 6 1 1 1 2 3 3 2 2 2 3
4 2 3 5 7 13 13 14 15 14 13 12 12 11 11 11 11 11 11 11 12 13 14 14 14 13 11 11 10 9 8 6 6 6 6 5 4 3 2 3 4 3 3 3 4 4 4 5 4 4 4 3 3 3 3 3 2 3 2 2 3 2 3 6 3 4 5 4 4 4 6 6 6 4 6 1 2 2 2 2 2 3 3 3 2
6 4 5 6 6 13 12 14 15 14 13 12 12 11 11 11 11 11 11 11 12 12 13 14 13 11 10 10 9 8 7 7 6 6 6 6 6 6 5 6 6 6 6 6 5 4 4 4 4 5 4 4 4 3 4 4 3 3 2 2 2 3 4 4 4 3 4 5 3 2 5 6 6 5 5 6 4 5 3 2 4 4 4 4 4
9 9 7 6 5 7 13 13 15 14 13 12 12 12 12 11 10 10 11 11 11 12 13 13 12 10 10 9 8 7 7 7 7 8 8 9 9 8 8 8 8 8 8 7 6 5 5 4 4 5 5 5 6 6 6 6 6 6 4 4 3 3 5 2 2 2 4 3 2 1 2 5 6 6 7 6 5 3 4 3 3 5 5 5 5
9 10 9 6 7 5 6 13 15 13 13 12 12 12 12 11 11 11 11 11 11 12 12 12 11 10 10 8 8 7 8 8 9 10 11 12 12 11 11 11 9 9 8 8 8 8 6 6 5 6 7 8 8 8 9 9 10 9 8 8 7 5 7 4 2 3 3 4 3 2 1 2 4 6 8 10 10 10 6 5 4 4 5 5 6
9 9 9 7 6 6 6 7 8 13 12 12 11 12 12 12 11 11 11 11 12 12 12 12 11 10 10 10 9 10 10 11 12 13 14 14 14 14 13 12 11 11 11 11 12 11 10 10 9 9 11 12 11 12 12 13 12 13 11 11 11 10 9 6 2 2 3 3 3 2 1 1 1 5 7 9 8 7 7 7 5 5 5 4 6
9 9 9 7 5 4 4 5 6 6 6 9 11 13 13 12 12 11 11 12 12 12 12 12 12 12 12 12 13 13 13 14 15 16 17 16 16 15 16 15 16 15 14 14 14 14 13 13 13 13 14 15 15 14 14 14 15 14 14 13 12 11 11 9 5 2 1 1 3 2 2 1 1 2 5 7 8 7 7 7 6 5 5 5 5
9 8 7 6 4 2 2 4 4 4 5 5 7 11 13 13 12 12 12 13 13 13 13 13 14 15 15 15 15 16 16 17 19 19 19 18 17 17 17 16 19 16 16 15 15 14 15 15 15 16 16 16 16 16 15 15 16 16 15 15 17 14 13 10 9 6 4 2 0 2 2 1 3 3 5 6 8 8 6 6 6 7 5 5 4
8 7 6 4 2 1 2 4 4 4 6 6 8 9 12 13 12 13 13 13 13 14 15 15 16 17 17 17 18 18 18 19 21 20 20 19 18 18 19 18 17 17 16 16 15 15 17 17 16 17 18 17 16 16 15 15 16 17 17 16 16 15 13 12 11 9 8 5 3 2 1 2 2 3 3 2 8 8 6 5 6 7 7 8 4
6 6 4 2 2 2 2 3 4 5 6 7 8 10 11 12 11 13 14 13 14 15 16 17 18 19 18 18 19 17 17 18 20 18 21 19 19 19 19 18 17 16 16 16 16 16 16 16 16 16 17 17 16 17 16 16 15 16 16 16 17 13 13 13 13 13 12 10 7 5 5 4 2 3 7 4 6 1 6 5 5 6 6 7 4
6 4 2 2 2 3 2 3 4 5 6 7 9 11 11 10 10 11 11 12 14 15 16 16 18 19 20 19 17 17 16 18 19 21 18 18 18 19 19 18 17 16 15 15 15 16 16 16 16 15 15 15 15 13 13 13 14 15 15 17 13 13 11 12 12 13 13 12 10 9 9 8 4 4 3 5 3 4 5 5 6 6 7 7 6
5 2 1 2 3 3 3 3 4 6 6 8 10 11 11 10 10 10 11 12 14 14 15 17 18 19 20 18 17 17 17 18 18 20 18 19 19 20 19 18 16 15 13 14 14 15 15 15 15 15 14 12 9 11 12 13 12 11 12 12 12 11 11 11 12 12 12 12 12 12 13 13 9 7 6 7 7 4 5 7 6 6 6 8 9
5 1 0 2 3 4 3 4 4 5 6 8 10 10 11 10 10 10 11 12 14 14 15 17 18 19 19 18 17 17 17 17 21 22 20 17 17 18 19 18 16 13 14 11 11 13 15 14 14 12 10 11 12 11 12 11 10 10 11 11 11 11 11 12 12 12 11 12 12 14 14 15 13 12 10 9 7 8 5 5 7 8 6 8 7
2 2 3 2 2 3 4 5 5 6 6 8 9 10 10 10 10 10 11 12 13 14 15 16 17 18 18 18 16 17 16 17 19 18 18 17 16 15 15 15 13 13 12 10 10 13 12 13 12 12 12 11 12 11 11 10 10 10 12 12 12 12 12 11 11 11 11 10 10 12 13 16 17 15 13 11 11 10 9 6 6 7 7 9 7
3 3 2 2 1 3 4 6 6 7 7 8 8 9 9 10 10 11 12 13 13 14 14 15 16 17 17 16 15 15 16 17 18 18 18 17 16 15 14 14 13 14 11 12 13 12 12 12 11 12 12 12 12 11 11 11 10 12 12 12 13 14 12 12 11 11 10 10 10 13 12 15 14 15 15 14 13 13 11 10 9 7 7 7 7
2 4 4 3 2 3 5 6 6 7 8 8 8 9 9 10 11 11 12 13 14 13 14 15 15 15 16 15 15 15 16 16 17 18 18 16 16 15 14 12 13 13 11 12 13 11 10 11 10 11 11 11 11 9 9 9 11 12 12 13 12 13 12 13 12 12 11 10 10 14 13 14 14 19 15 15 15 14 13 12 11 10 7 7 7
4 4 5 4 3 3 5 6 7 7 8 8 8 9 9 10 12 12 12 13 13 13 14 14 13 14 15 15 15 15 15 16 16 16 16 15 15 14 13 13 12 12 11 10 11 10 10 9 9 10 9 9 10 9 8 9 10 11 12 12 12 12 13 13 13 13 11 11 10 12 13 13 6 13 16 17 15 14 14 13 12 10 10 8 7
3 4 5 4 4 5 6 7 8 7 7 8 9 9 10 11 12 12 12 12 12 13 12 11 12 13 13 14 14 15 15 15 16 15 14 14 14 14 14 13 11 11 10 11 10 10 10 8 9 9 9 8 7 6 7 8 9 9 9 11 10 11 13 13 13 12 12 11 10 11 14 13 17 17 17 16 13 14 14 13 12 11 10 10 10
2 5 5 5 6 5 6 7 7 7 7 8 9 9 10 11 12 12 11 12 12 12 10 11 11 11 13 13 14 14 15 14 15 15 13 14 13 13 13 13 12 10 10 12 10 10 10 9 9 9 9 8 5 7 5 5 5 5 6 9 10 nan nan 10 11 12 12 12 12 12 14 14 16 16 15 16 16 17 14 10 10 9 9 9 8
4 4 5 7 7 6 7 7 8 7 8 8 9 9 10 11 12 11 11 12 11 11 11 11 11 12 12 12 14 15 14 14 14 14 14 14 14 13 13 12 12 10 9 10 8 9 8 9 8 8 7 6 5 5 4 3 4 4 5 nan nan nan nan nan 10 11 11 11 12 12 10 12 14 15 19 17 16 15 14 11 11 9 10 10 8
3 4 7 8 7 6 7 8 7 8 8 9 9 10 10 11 11 11 11 11 10 11 11 12 12 12 13 13 13 14 14 14 13 13 13 13 14 14 13 12 12 10 9 9 8 6 7 6 7 7 6 6 6 5 5 5 4 3 3 nan nan nan nan nan 8 10 10 11 12 11 10 9 12 15 14 16 17 15 11 10 10 12 11 9 7
7 6 7 7 6 6 7 7 7 8 8 9 10 10 10 10 10 11 11 11 10 10 12 12 12 12 13 13 14 14 14 14 13 13 13 13 13 13 13 12 11 9 9 10 8 6 6 5 5 6 4 4 4 5 5 6 4 2 3 2 2 nan nan nan nan 7 8 8 8 9 10 10 9 10 13 16 11 10 15 15 12 8 8 9 7
7 9 8 7 6 7 7 8 7 7 8 9 10 10 10 10 10 10 10 9 10 10 12 12 13 13 12 13 14 13 13 13 12 13 12 12 12 12 12 11 10 10 9 9 10 9 7 5 5 4 3 4 3 4 5 4 6 4 3 3 nan 3 nan nan nan 5 6 7 8 9 10 10 10 9 8 8 18 19 16 15 12 12 10 10 8
8 8 7 6 5 5 6 8 7 7 8 9 9 10 10 9 9 9 8 8 9 10 11 11 12 13 12 13 13 12 13 12 11 12 12 11 11 11 11 11 9 9 9 9 11 9 8 7 6 4 4 5 5 5 5 5 6 5 4 5 4 3 nan nan 2 3 5 6 7 9 9 9 10 9 9 9 13 17 15 15 14 12 11 10 11
5 7 7 5 4 4 4 6 6 6 8 9 10 9 9 8 8 7 7 8 9 10 11 12 12 12 12 12 12 11 12 11 10 10 11 10 10 10 10 9 9 9 9 9 10 11 10 9 8 8 7 6 6 7 7 5 5 6 4 nan nan 6 nan nan 3 3 4 6 7 7 7 7 9 9 10 10 10 11 17 17 16 15 12 10 9
6 6 5 3 3 3 4 4 4 5 6 8 8 8 8 7 7 7 7 8 9 10 10 11 12 11 12 11 10 10 11 11 10 10 11 10 10 9 9 9 9 9 9 10 11 10 11 11 9 10 11 11 8 8 7 7 4 4 nan nan nan 7 nan nan nan 6 6 6 6 6 6 7 7 8 7 8 10 10 14 16 16 16 15 13 10
5 5 5 2 2 2 4 4 4 3 5 6 6 7 7 7 7 7 7 8 9 9 9 10 11 12 11 11 10 10 10 10 10 10 10 9 9 9 8 10 10 10 11 11 12 10 11 11 11 9 11 11 11 8 6 6 6 4 nan nan nan nan nan 8 9 9 8 7 6 6 6 6 6 6 6 7 8 9 10 13 15 15 15 15 14
6 4 4 3 2 2 3 3 3 3 3 4 4 5 6 7 8 8 8 9 9 9 9 10 11 11 11 11 10 10 9 9 9 9 9 8 8 9 10 11 11 12 13 13 12 12 12 11 12 9 9 10 10 9 9 8 6 5 5 6 nan nan 7 8 9 nan 8 7 8 8 7 7 7 7 7 6 7 8 9 10 12 12 12 13 13
6 6 3 2 1 1 2 3 3 3 3 3 4 5 6 6 7 8 9 9 9 9 9 10 10 11 10 9 9 8 8 8 9 9 10 9 9 10 12 12 13 14 15 14 14 13 14 14 13 11 9 7 9 9 9 8 7 nan 5 nan nan 8 9 7 nan 9 9 8 9 10 9 9 9 9 8 8 7 7 8 9 10 11 12 11 12
4 3 1 0 1 1 1 3 3 2 3 3 3 3 3 5 6 7 8 8 8 8 9 9 10 10 8 7 6 7 7 8 9 10 10 10 10 10 11 13 14 16 16 15 14 14 13 14 13 12 13 11 9 nan nan nan nan nan nan nan nan 6 8 7 nan nan 9 9 11 12 12 12 11 10 10 10 10 9 10 11 10 11 11 11 13
2 1 1 2 1 1 2 3 3 3 4 4 4 4 4 4 3 5 6 8 7 7 8 9 9 8 7 6 5 6 7 8 9 10 10 10 10 11 12 14 15 16 14 12 12 12 13 14 14 14 12 15 14 nan nan nan nan nan nan nan nan nan 7 nan nan nan nan 10 11 13 13 13 14 12 12 12 11 11 10 11 11 11 11 12 12
1 1 1 0 1 2 4 4 5 4 5 5 4 5 4 4 3 4 4 7 8 8 8 8 8 7 5 4 4 5 6 7 9 10 10 10 12 12 13 14 15 14 12 12 12 13 14 16 18 18 17 14 14 14 14 nan nan nan nan nan nan nan nan nan nan nan nan 9 11 13 13 14 15 14 13 14 13 13 12 12 12 12 12 13 13
3 3 1 3 1 3 4 5 5 5 4 5 6 5 4 4 4 3 4 5 7 8 8 8 7 6 4 2 3 4 6 7 9 10 10 11 13 13 13 14 14 12 12 12 12 14 14 16 18 19 17 17 nan nan 15 nan nan nan nan nan nan nan nan nan nan nan nan 9 11 12 13 14 14 14 14 15 14 14 14 13 14 14 15 14 14
3 2 2 2 1 4 4 5 4 5 4 5 6 3 2 3 3 5 6 5 9 8 7 7 6 5 4 2 4 3 5 7 9 11 12 12 13 13 13 13 13 11 10 11 12 15 17 19 20 19 19 20 nan nan 17 nan nan nan nan nan nan nan nan nan nan nan nan 9 9 11 12 13 13 12 13 15 15 14 14 14 16 17 16 16 15
5 4 2 2 1 2 3 3 2 3 4 5 5 3 3 2 0 1 2 2 4 4 5 4 4 3 3 3 2 1 4 6 9 11 12 13 13 13 13 13 11 10 10 11 12 13 17 19 19 18 18 19 nan nan nan 17 16 17 nan nan nan nan nan nan nan nan nan nan 8 11 11 12 12 11 11 12 13 13 14 14 17 17 17 17 16
7 3 1 1 1 2 3 5 5 4 5 5 6 4 3 2 3 3 2 1 2 5 7 7 4 4 4 2 1 2 4 7 8 11 12 13 13 12 13 11 10 10 9 10 12 16 17 19 15 13 16 17 nan nan nan nan nan nan nan nan 14 12 nan nan nan nan nan nan 8 9 11 11 12 11 10 10 11 11 13 14 15 18 18 18 18
8 5 3 2 3 3 4 5 5 5 5 5 5 4 4 3 3 2 1 0 1 2 4 5 6 6 3 2 3 3 5 6 8 11 12 13 13 12 12 11 10 9 9 10 13 14 15 15 14 13 11 14 nan nan nan nan nan nan 14 14 14 nan nan nan nan nan nan nan nan nan nan 11 12 12 12 11 11 11 11 12 14 17 19 19 19
8 8 7 6 6 5 5 4 5 6 5 7 6 5 4 4 4 2 1 1 2 2 7 8 7 6 3 3 3 4 6 7 8 10 12 14 13 12 12 11 9 9 9 9 11 13 17 17 15 13 13 13 nan nan nan nan nan nan nan nan nan nan nan nan nan nan nan nan nan nan nan nan nan 11 12 13 13 14 nan nan nan 16 19 19 19
8 10 9 7 6 5 5 6 6 5 6 8 7 7 7 6 5 4 4 3 4 5 8 8 8 8 5 4 4 6 7 7 8 10 12 13 13 12 11 11 9 9 9 10 11 13 16 16 15 15 13 nan nan 13 nan nan nan nan nan nan nan nan nan nan nan nan nan nan nan nan nan nan nan nan nan 14 14 14 nan nan nan nan nan 20 20
5 6 7 7 7 6 5 6 6 4 5 7 9 10 9 7 6 6 6 5 5 7 8 9 10 9 7 6 6 7 9 8 9 10 12 13 14 13 11 9 8 8 8 9 11 13 15 16 14 13 13 nan nan nan 14 nan nan nan nan nan nan nan nan nan nan nan nan nan nan nan nan nan nan nan nan nan 16 nan nan nan nan nan nan nan nan
Wind_Direction
107 102 113 81 83 349 340 323 301 293 290 288 288 305 314 323 329 325 330 329 334 337 331 331 331 331 328 325 322 323 324 321 323 319 310 304 304 305 300 296 287 278 269 262 256 251 247 241 236 234 233 238 247 253 269 286 284 283 282 270 260 251 246 251 253 259 270 274 267 281 342 1 342 337 16 282 264 262 266 270 262 207 180 203 216
83 103 115 99 83 2 335 335 312 302 307 302 311 330 332 335 332 331 332 333 336 334 331 331 330 329 327 325 324 323 320 319 318 311 304 307 313 307 303 294 284 273 259 255 253 249 247 243 234 227 221 208 212 252 258 277 291 295 288 277 264 260 257 258 264 267 263 271 267 261 296 37 31 27 351 326 265 257 266 270 261 170 166 207 211
105 106 105 87 64 34 354 343 322 312 309 320 339 338 336 334 331 328 333 332 332 331 330 329 327 328 326 324 322 318 313 313 314 311 316 324 330 324 314 300 290 279 268 261 259 252 243 238 239 244 270 207 164 214 206 244 260 273 280 281 272 258 253 260 265 258 241 227 185 90 60 15 355 52 27 354 282 269 278 270 259 219 178 210 206
91 104 104 71 42 24 360 347 332 322 325 339 344 341 335 332 328 328 330 331 334 332 331 328 327 328 325 321 315 311 313 316 318 324 331 339 338 330 319 303 290 275 266 264 261 254 245 250 311 346 350 316 262 239 212 227 238 244 265 274 284 271 262 253 254 255 289 298 189 145 114 107 65 40 30 20 330 251 255 268 270 238 222 200 207
69 96 98 91 60 24 357 342 333 330 337 344 341 339 334 331 330 330 332 335 335 334 329 329 330 331 323 316 316 318 322 324 325 331 339 345 342 328 313 311 293 262 262 269 269 258 271 325 279 181 235 209 203 237 228 238 257 289 275 274 289 311 307 300 270 263 246 236 188 136 112 99 97 46 31 34 52 202 234 262 260 241 220 208 206
43 92 103 95 76 26 345 338 334 338 344 343 339 336 333 333 334 332 334 334 334 334 334 335 335 330 325 327 333 336 337 334 336 340 342 340 328 324 342 349 327 278 280 289 265 255 329 321 246 201 201 204 178 199 196 205 203 244 310 279 269 263 354 43 0 311 280 241 184 122 112 98 87 79 18 44 46 52 189 236 240 231 216 217 210
1 94 88 86 66 16 341 340 340 342 345 340 339 336 335 335 333 334 334 335 338 341 342 341 338 336 340 347 348 345 345 347 345 343 340 337 337 346 3 4 323 317 313 298 271 327 34 298 301 250 214 174 158 148 136 152 180 186 182 233 256 252 131 203 214 314 282 196 123 125 114 107 103 90 13 35 38 40 63 188 217 227 217 215 212
332 33 27 74 72 351 341 348 346 343 342 338 338 335 337 337 336 338 337 343 347 351 348 344 345 349 356 358 352 349 351 352 347 343 339 344 359 3 5 14 324 264 274 288 323 97 125 27 338 300 258 97 121 126 126 121 128 166 164 175 236 237 255 253 2 324 284 101 110 116 117 110 110 89 19 23 34 35 59 123 190 200 229 229 213
338 346 0 49 34 342 343 354 345 340 337 336 337 337 339 342 346 344 345 349 353 355 350 350 356 360 4 0 354 353 354 350 344 343 346 357 17 23 13 8 258 239 246 231 222 293 96 139 181 309 4 44 68 97 88 94 121 108 133 220 227 238 238 336 312 290 109 97 96 98 104 108 117 97 25 1 22 31 46 66 119 224 228 233 219
350 353 15 55 31 348 351 348 342 338 336 337 339 341 344 351 355 353 352 353 358 358 356 360 3 6 6 1 357 356 355 351 345 344 353 5 21 33 9 314 258 253 206 189 240 42 77 110 135 165 10 44 69 87 65 46 60 116 56 306 250 231 226 219 241 235 117 103 94 101 82 63 115 141 79 1 15 41 56 97 117 139 182 229 223
2 4 35 29 19 354 348 343 339 337 338 340 341 347 354 1 4 359 355 357 358 359 4 7 8 10 6 3 2 1 2 358 350 349 358 9 9 345 258 243 247 252 202 167 136 114 72 82 109 103 71 62 73 105 61 21 356 327 331 339 290 243 233 238 225 168 150 120 114 121 88 352 127 127 84 2 21 45 35 38 121 318 249 247 243
11 356 23 17 356 347 347 344 340 340 343 345 347 354 3 9 7 360 356 356 359 4 10 12 12 12 7 7 11 11 14 12 7 6 12 15 17 357 265 220 221 223 212 122 95 98 104 104 99 99 93 64 57 35 42 4 357 346 327 31 28 246 228 254 218 194 174 137 115 109 106 118 129 54 63 40 24 90 178 286 58 250 255 244 240
356 335 348 4 354 350 349 347 343 344 348 351 355 1 9 12 7 359 356 358 2 10 15 16 18 15 10 17 20 24 27 31 34 31 29 31 42 53 94 144 172 171 161 114 97 86 100 105 103 100 88 68 41 26 23 1 357 7 357 8 24 353 279 266 228 217 194 167 126 102 100 105 113 30 25 11 72 209 80 22 271 248 242 243 230
337 329 336 342 351 349 351 354 350 354 355 358 1 6 14 12 6 359 359 3 9 14 20 22 23 19 19 26 29 33 35 43 47 49 52 55 62 76 93 119 135 140 136 122 111 106 105 111 106 93 83 85 76 56 34 21 13 26 22 16 9 359 315 289 274 245 213 193 167 91 83 86 81 70 21 23 358 48 23 322 282 263 251 249 243
334 330 326 333 338 344 3 1 358 2 2 3 4 9 14 12 7 4 6 10 15 20 25 25 27 24 30 33 34 39 48 52 61 65 70 76 82 87 99 112 120 124 120 120 119 118 116 125 107 81 80 77 87 69 47 49 43 42 46 46 18 335 318 279 261 232 219 221 212 259 57 83 70 50 30 8 15 48 41 331 314 284 272 259 257
333 327 324 329 342 6 15 10 4 9 6 6 8 11 14 15 13 13 16 16 20 28 30 30 32 35 39 44 48 54 65 70 73 79 82 86 92 97 102 107 116 119 119 116 120 120 115 110 105 77 70 79 87 75 61 58 58 60 50 48 42 17 343 316 259 221 205 220 239 257 277 55 47 42 16 10 9 15 8 348 338 316 290 275 265
331 331 330 338 354 354 31 41 26 10 10 9 12 17 20 21 22 23 25 24 29 35 38 39 42 47 54 58 64 70 73 79 82 84 85 90 96 101 104 108 114 114 110 109 110 115 109 100 96 81 70 78 86 82 68 65 59 59 61 57 51 44 20 356 337 239 224 232 230 238 256 232 53 24 359 1 5 1 355 351 355 341 308 288 271
332 335 339 344 358 10 35 57 49 42 52 24 22 24 28 29 30 33 34 36 39 44 49 49 57 63 68 69 71 75 79 82 84 85 89 93 99 103 103 113 116 108 104 102 106 110 104 99 90 86 79 78 80 80 78 72 66 63 61 65 59 50 38 26 37 37 49 227 228 234 239 317 237 345 341 345 339 342 349 353 353 350 340 314 283
331 337 340 351 9 43 53 80 71 80 69 79 76 50 34 37 38 41 43 47 50 54 57 62 69 74 75 75 75 78 83 85 86 89 92 96 98 101 104 101 105 109 105 102 103 106 99 95 90 87 82 81 79 79 77 74 70 69 63 55 67 60 46 43 48 45 62 119 155 235 240 233 267 336 315 327 321 322 343 347 351 347 343 307 308
332 336 347 6 30 83 114 107 101 93 97 90 85 83 55 44 46 49 50 53 56 61 64 70 75 78 79 80 80 87 88 91 88 94 94 94 96 95 97 102 103 103 103 103 99 95 92 90 85 82 83 82 82 78 71 68 69 67 66 65 66 66 61 58 60 59 63 68 60 81 111 120 272 337 317 276 325 325 326 331 342 344 342 316 353
331 341 355 26 50 97 120 134 115 103 101 94 95 92 80 55 61 55 54 57 62 64 69 72 79 85 88 86 87 95 101 99 104 103 97 97 92 93 97 99 101 99 99 100 98 90 86 85 82 80 78 79 77 75 69 63 65 64 62 61 58 57 61 63 65 67 67 66 59 59 61 76 89 27 321 38 249 11 313 324 330 340 329 316 342
335 337 10 60 87 124 132 139 130 110 111 107 106 104 104 77 100 94 91 79 73 75 83 97 93 105 90 95 102 104 103 103 105 101 99 103 104 98 97 100 101 100 99 99 98 94 88 86 82 77 77 74 76 73 76 73 64 65 59 57 53 47 50 57 65 68 69 69 63 59 49 55 58 43 25 9 4 58 337 324 321 325 328 332 330
339 335 44 75 131 156 158 141 127 124 115 111 110 113 113 119 109 105 105 87 93 91 101 99 106 103 107 106 110 111 108 104 104 103 100 98 97 98 100 102 101 99 98 95 92 91 88 83 82 80 80 86 76 74 68 66 63 71 67 61 50 49 50 50 55 61 67 67 66 62 53 52 43 37 40 34 10 50 72 330 329 302 330 330 318
339 349 11 152 159 164 157 152 131 129 122 116 118 118 120 124 117 115 112 109 105 108 105 107 107 108 112 114 113 110 108 106 103 100 102 108 106 108 109 109 113 115 105 94 96 97 94 91 89 89 79 70 72 66 66 62 61 55 51 48 51 49 45 50 52 52 58 62 60 64 59 54 49 44 43 50 27 27 38 20 332 318 338 311 315
308 224 188 167 178 173 171 157 147 138 125 120 118 119 123 126 124 120 119 118 115 117 112 111 111 111 115 114 113 110 111 107 111 114 114 114 115 110 108 109 109 109 105 95 85 82 82 79 80 78 71 69 68 66 64 66 58 55 50 44 42 47 47 46 47 51 51 55 59 59 62 59 51 45 46 47 45 31 33 50 354 337 332 310 330
226 195 169 193 206 175 164 158 154 140 128 124 122 119 125 124 124 124 125 125 122 120 117 114 113 111 113 112 114 109 109 106 113 114 112 114 113 112 108 108 108 103 100 98 88 85 82 78 73 73 71 63 61 61 54 56 57 61 55 46 39 35 40 43 39 40 43 45 48 51 54 55 58 53 49 51 49 34 29 39 37 359 352 336 326
212 179 190 183 190 164 152 156 149 146 132 133 137 127 127 128 128 128 127 126 127 124 119 117 113 112 110 110 107 105 104 104 106 109 110 113 109 109 104 102 99 96 96 94 90 86 82 80 78 73 68 67 67 55 56 55 50 51 54 51 39 33 33 37 33 32 34 36 43 43 39 43 24 47 38 48 47 38 32 31 43 22 7 8 345
208 190 186 183 165 141 146 147 149 144 138 135 135 130 136 129 124 124 130 128 129 122 118 115 115 110 109 108 109 105 103 103 104 104 105 109 104 100 96 93 91 86 85 84 85 83 80 79 80 79 75 67 65 63 43 48 50 52 60 51 43 36 30 30 28 28 25 25 33 40 37 37 14 55 34 39 41 44 36 28 40 26 25 15 10
217 191 186 174 145 149 145 138 144 136 139 133 132 139 141 135 130 129 127 122 124 119 115 115 109 108 106 103 105 104 104 103 102 101 102 101 99 96 92 88 83 79 73 74 69 73 73 70 70 71 69 65 62 67 60 43 40 44 54 69 58 35 28 23 22 24 20 17 20 31 34 35 4 31 32 36 36 47 47 32 33 42 31 24 21
197 200 187 157 158 157 139 134 137 140 140 137 138 142 139 125 124 128 132 123 119 117 118 111 109 105 102 98 100 101 99 98 99 101 98 98 95 93 90 85 77 72 63 64 60 56 61 63 59 54 54 57 30 58 54 59 57 48 45 63 62 nan nan 16 17 20 16 11 11 17 32 25 20 14 23 23 36 34 34 32 30 37 40 43 44
213 186 170 157 157 151 135 137 139 132 147 136 142 144 138 127 131 130 130 124 121 117 112 107 103 99 97 94 95 98 97 98 96 95 95 94 95 90 84 81 76 64 55 62 59 52 53 48 50 49 45 36 40 37 32 51 56 51 21 nan nan nan nan nan 13 18 17 8 8 7 15 29 28 9 16 21 29 30 22 18 34 30 28 40 32
183 165 162 161 150 125 129 133 137 145 146 139 145 145 136 130 127 128 123 123 119 114 105 100 96 97 94 93 92 93 95 95 92 91 89 89 87 82 78 72 68 59 48 52 50 49 45 44 37 29 20 3 10 28 25 23 50 31 19 nan nan nan nan nan 17 12 15 8 7 360 358 16 28 24 10 20 18 24 3 31 22 33 26 35 36
164 162 161 155 125 121 124 125 137 144 142 138 145 144 140 135 131 128 125 121 115 110 101 96 98 97 96 94 93 90 93 89 87 84 86 82 79 76 72 63 59 46 34 34 36 33 29 26 11 0 8 352 350 1 14 10 9 19 339 311 36 nan nan nan nan 10 14 10 1 359 356 3 10 26 11 9 13 17 10 20 17 10 18 22 37
166 166 162 136 136 143 137 142 136 130 130 139 140 140 134 131 127 130 121 121 114 107 103 106 101 99 99 96 95 91 89 87 81 80 79 74 69 64 60 57 44 30 19 15 17 11 16 16 2 344 351 335 343 359 356 359 338 356 316 341 nan 38 nan nan nan 5 6 1 356 359 360 355 2 2 360 332 331 1 12 6 7 14 17 17 21
172 167 142 136 131 132 144 146 134 125 126 126 124 126 129 127 127 124 121 113 115 108 110 113 107 105 103 100 94 91 86 81 75 73 69 61 56 52 46 45 33 20 17 12 10 4 359 13 1 11 354 340 345 355 348 354 327 315 344 345 340 332 nan nan 293 339 346 352 358 356 359 353 354 356 355 348 352 356 2 2 6 10 17 17 17
164 167 153 154 114 120 128 136 132 121 121 118 119 119 120 122 123 121 118 110 112 110 111 113 113 110 106 102 95 91 83 76 70 62 59 48 42 37 38 37 30 17 17 10 8 12 8 16 8 356 16 14 359 2 344 340 329 320 331 nan nan 303 nan nan 301 318 328 342 355 356 350 350 348 356 5 348 345 355 1 0 1 0 2 18 20
174 172 163 156 112 103 113 111 105 106 117 114 117 122 127 123 118 114 107 109 108 109 113 115 114 114 107 105 98 89 83 73 62 51 46 37 29 28 29 28 18 12 10 11 13 11 13 20 19 1 359 9 2 9 346 332 333 322 nan nan nan 296 nan nan nan 329 328 330 346 339 346 344 344 355 356 348 341 343 353 357 359 358 355 2 16
164 168 180 160 83 113 124 114 127 114 123 117 115 123 129 127 126 124 124 113 108 113 115 114 111 112 110 106 100 90 83 70 56 45 40 30 19 20 23 19 9 5 7 8 16 13 17 17 29 10 2 1 5 3 352 336 327 332 nan nan nan nan nan 297 310 313 317 325 327 329 331 329 329 329 345 348 344 349 351 354 355 354 355 359 5
172 183 194 186 187 149 141 105 103 100 103 116 126 133 138 139 141 135 127 121 123 118 117 113 111 113 111 105 101 92 83 66 51 38 32 23 14 12 15 9 2 2 5 8 14 18 21 22 28 32 11 11 5 350 350 341 328 320 307 292 nan nan 293 306 303 nan 311 320 311 313 317 317 316 319 323 336 342 346 350 345 343 341 341 351 1
184 198 210 212 204 159 147 140 104 88 107 128 152 153 157 146 138 143 134 126 125 123 119 115 115 110 109 103 99 91 79 63 45 32 26 17 9 8 8 357 359 358 1 9 17 20 24 26 30 28 39 17 359 352 346 347 334 nan 315 nan nan 299 296 298 nan 300 307 306 302 301 303 301 303 306 311 318 326 331 328 329 335 335 333 339 354
194 212 225 297 330 356 199 79 93 81 91 104 118 133 136 145 138 120 117 127 127 127 122 120 115 113 106 101 91 82 71 57 40 24 19 13 7 358 356 356 356 359 2 14 15 18 19 16 13 15 16 11 4 nan nan nan nan nan nan nan nan 282 295 292 nan nan 296 297 295 294 293 292 290 293 298 303 310 315 314 312 316 323 323 328 331
164 243 24 2 356 16 67 83 111 82 75 77 92 101 107 110 123 119 129 134 135 123 118 121 118 123 115 103 90 72 57 45 33 17 14 4 356 351 356 357 355 359 4 4 10 14 12 6 4 3 359 358 2 nan nan nan nan nan nan nan nan nan 295 nan nan nan nan 290 291 286 283 285 286 289 291 294 295 297 295 296 302 306 308 311 313
104 69 68 91 48 70 79 75 77 66 69 71 81 82 103 109 99 138 108 130 139 139 136 134 139 129 124 108 86 67 44 36 24 12 4 354 355 352 358 353 354 353 353 1 9 14 13 13 9 8 8 3 12 9 357 nan nan nan nan nan nan nan nan nan nan nan nan 284 283 281 281 282 282 283 286 288 289 290 291 293 293 292 291 295 301
142 148 145 39 66 74 75 63 62 59 59 56 65 85 96 115 132 152 152 132 148 158 155 155 146 146 129 107 80 49 27 18 8 3 357 350 349 354 350 350 351 353 354 360 10 18 17 17 14 19 13 23 nan nan 19 nan nan nan nan nan nan nan nan nan nan nan nan 280 282 283 284 285 283 282 283 283 285 289 292 292 289 286 287 292 298
70 75 45 33 190 21 31 26 29 29 34 34 40 59 114 129 147 180 189 170 171 177 172 150 146 151 157 146 67 29 7 357 351 354 350 347 347 346 346 349 345 348 352 3 11 21 21 19 17 23 27 27 nan nan 33 nan nan nan nan nan nan nan nan nan nan nan nan 296 280 286 286 284 283 283 281 280 282 287 290 293 289 287 288 291 294
38 55 66 58 348 322 335 341 338 341 350 1 3 353 33 40 291 159 122 154 142 161 130 132 168 156 123 162 185 333 335 334 336 344 345 339 341 343 344 340 340 343 356 7 13 13 19 19 20 24 30 29 nan nan nan 27 35 34 nan nan nan nan nan nan nan nan nan nan 312 297 293 291 291 287 281 279 278 283 288 289 290 291 292 293 293
27 13 1 99 57 271 303 323 324 321 321 321 336 333 340 3 14 27 52 70 113 139 178 193 192 188 200 185 189 271 323 322 323 335 338 336 337 339 339 338 335 341 351 357 12 20 17 15 10 16 25 14 nan nan nan nan nan nan nan nan 18 19 nan nan nan nan nan nan 314 318 311 307 305 301 297 291 287 284 286 288 290 292 295 295 294
7 337 339 336 357 341 312 322 307 309 305 302 321 324 328 343 352 16 30 330 34 124 219 221 230 236 228 194 234 266 299 313 319 328 332 329 333 334 332 326 330 339 345 3 17 15 7 6 4 9 359 2 nan nan nan nan nan nan 14 14 7 nan nan nan nan nan nan nan nan nan nan 324 322 322 317 310 303 294 285 284 286 287 288 291 292
352 345 348 340 342 339 327 318 322 320 320 332 329 327 320 331 351 352 336 255 290 243 240 246 248 253 278 233 253 270 280 297 314 323 327 330 331 331 327 324 326 335 344 357 11 3 1 357 355 352 352 350 nan nan nan nan nan nan nan nan nan nan nan nan nan nan nan nan nan nan nan nan nan 336 331 319 311 305 nan nan nan 288 290 290 290
352 349 346 326 322 313 330 336 349 330 324 336 338 340 341 326 332 343 353 299 274 254 255 261 261 261 274 270 263 269 275 292 309 314 321 326 330 326 321 324 325 326 336 351 356 353 352 355 355 352 344 nan nan 358 nan nan nan nan nan nan nan nan nan nan nan nan nan nan nan nan nan nan nan nan nan 334 328 317 nan nan nan nan nan 295 295
342 344 334 319 307 312 331 343 0 336 331 343 345 352 350 342 336 331 338 333 307 278 265 264 262 260 267 272 275 277 276 297 302 312 322 323 333 333 326 317 311 313 326 338 352 349 347 349 348 342 341 nan nan nan 6 nan nan nan nan nan nan nan nan nan nan nan nan nan nan nan nan nan nan nan nan nan 328 nan nan nan nan nan nan nan nan